Weather History for KDSM - September, 2011

Change the Weather History Date:

Tuesday, September 27, 2011

  Actual Average Record
Temperature  
Mean Temperature 63 °F 61 °F  
Max Temperature 72 °F 71 °F 91 °F (1956)
Min Temperature 54 °F 50 °F 31 °F (1942)
Degree Days  
Heating Degree Days 2 6  
Month to date heating degree days 111 74  
Since 1 July heating degree days 111 80  
Cooling Degree Days 0 2  
Month to date cooling degree days 88 108  
Year to date cooling degree days 1308 1047  
Growing Degree Days 12 (Base 50)    
Moisture  
Dew Point 53 °F    
Average Humidity 75    
Maximum Humidity 93    
Minimum Humidity 57    
Precipitation  
Precipitation T in 0.09 in 3.25 in (1945)
Month to date precipitation 0.71 2.78  
Year to date precipitation 30.65 29.50  
Snow  
Snow 0.00 in 0.00 in - ()
Month to date snowfall 0.0 0.0  
Since 1 July snowfall 0.0 0.0  
Since 1 September snowfall 0.0 0.0  
Snow Depth 0.00 in    
Sea Level Pressure  
Sea Level Pressure 29.87 in    
Wind  
Wind Speed 6 mph (NNW)    
Max Wind Speed 14 mph    
Max Gust Speed 17 mph    
Visibility 10 miles    
Events Rain    
T = Trace of Precipitation, MM = Missing Value Source: NWS Daily Summary

Daily Weather History Graph

Daily Weather History Graph

Search for Another Location

Airport or City:

Trip Planner

Search our weather history database for the weather conditions in past years. The results will help you decide how hot, cold, wet, or windy it might be!

Date:

Astronomy

Sep. 27, 2011 Rise Set
Actual Time 7:07 AM CDT 7:03 PM CDT
Civil Twilight 6:39 AM CDT 7:31 PM CDT
Nautical Twilight 6:07 AM CDT 8:03 PM CDT
Astronomical Twilight 5:34 AM CDT 8:36 PM CDT
Moon 7:23 AM CDT (9/27) 6:53 PM CDT (9/27)
Length of Visible Light 12h 51m
Length of Day
11h 56m
New Moon, 0% of the Moon is Illuminated
Sep 27
New Moon
Oct 3
First Quarter
Oct 11
Full
Oct 19
Last Quarter
Oct 26
New

Hourly Weather History & Observations

Time (CDT) Temp. Dew Point Humidity Pressure Visibility Wind Dir Wind Speed Gust Speed Precip Events Conditions
12:54 AM 62.1 °F 54.0 °F 75% 29.79 in 10.0 mi North 11.5 mph 20.7 mph N/A   Overcast
1:54 AM 59.0 °F 53.1 °F 81% 29.81 in 10.0 mi North 9.2 mph - N/A   Clear
2:54 AM 57.0 °F 53.1 °F 87% 29.81 in 10.0 mi North 5.8 mph - N/A   Partly Cloudy
3:54 AM 57.0 °F 52.0 °F 83% 29.82 in 10.0 mi North 8.1 mph - N/A   Clear
4:54 AM 55.0 °F 52.0 °F 89% 29.85 in 10.0 mi NW 6.9 mph - N/A   Mostly Cloudy
5:54 AM 55.0 °F 53.1 °F 93% 29.86 in 9.0 mi NNW 4.6 mph - N/A   Overcast
6:54 AM 55.9 °F 53.1 °F 90% 29.87 in 10.0 mi NW 5.8 mph - N/A   Overcast
7:54 AM 57.0 °F 53.1 °F 87% 29.88 in 10.0 mi NW 8.1 mph - N/A   Overcast
8:54 AM 59.0 °F 53.1 °F 81% 29.89 in 10.0 mi NNW 6.9 mph - N/A   Overcast
9:31 AM 60.8 °F 53.6 °F 77% 29.91 in 10.0 mi NW 10.4 mph - N/A   Overcast
9:49 AM 60.8 °F 53.6 °F 77% 29.92 in 10.0 mi North 9.2 mph - N/A   Mostly Cloudy
9:54 AM 61.0 °F 54.0 °F 78% 29.91 in 10.0 mi North 9.2 mph - N/A   Mostly Cloudy
10:54 AM 64.0 °F 52.0 °F 65% 29.91 in 10.0 mi North 9.2 mph - N/A   Scattered Clouds
11:09 AM 64.4 °F 53.6 °F 68% 29.92 in 10.0 mi North 9.2 mph - N/A   Mostly Cloudy
11:54 AM 64.4 °F 51.8 °F 64% 29.92 in 10.0 mi North 8.1 mph - N/A   Overcast
12:54 PM 66.2 °F 51.8 °F 60% 29.92 in 10.0 mi North 8.1 mph 17.3 mph N/A   Overcast
1:54 PM 69.8 °F 53.6 °F 56% 29.90 in 10.0 mi North 8.1 mph - N/A   Overcast
2:54 PM 69.1 °F 53.1 °F 57% 29.88 in 10.0 mi NNW 9.2 mph - N/A   Overcast
3:54 PM 69.1 °F 53.1 °F 57% 29.88 in 10.0 mi North 9.2 mph 17.3 mph 0.00 in Rain Light Rain
4:54 PM 69.1 °F 53.1 °F 57% 29.87 in 10.0 mi North 10.4 mph - N/A   Mostly Cloudy
5:54 PM 69.1 °F 53.1 °F 57% 29.87 in 10.0 mi North 4.6 mph - N/A   Mostly Cloudy
6:54 PM 68.0 °F 53.1 °F 59% 29.87 in 10.0 mi NNW 4.6 mph - N/A   Mostly Cloudy
7:54 PM 66.9 °F 54.0 °F 63% 29.87 in 10.0 mi Calm Calm - N/A   Overcast
8:54 PM 64.9 °F 55.0 °F 70% 29.87 in 10.0 mi Calm Calm - N/A   Overcast
9:54 PM 64.0 °F 55.0 °F 73% 29.88 in 10.0 mi WNW 3.5 mph - N/A   Overcast
10:54 PM 64.0 °F 55.0 °F 73% 29.87 in 10.0 mi West 4.6 mph - N/A   Overcast
11:54 PM 64.0 °F 55.0 °F 73% 29.86 in 10.0 mi WNW 5.8 mph - N/A   Overcast